Data supplied by UK-AIR on 16/6/2018
All Data GMT hour ending 
Status: R =Ratified P=Provisional,P*=As supplied
,,High Muffles,,,,,,,,,,,,,,,,,,,,,,,
Date,time,"Nitric oxide",status,unit,"Nitrogen dioxide",status,unit,"Nitrogen oxides as nitrogen dioxide",status,unit,"Ozone",status,unit
 
01-01-2017,01:00,0.42824,R,ugm-3,2.30648,R,ugm-3,2.96310,R,ugm-3,64.99330,R,ugm-3
01-01-2017,02:00,0.48146,R,ugm-3,2.66985,R,ugm-3,3.40808,R,ugm-3,56.94397,R,ugm-3
01-01-2017,03:00,0.54538,R,ugm-3,0.64547,R,ugm-3,1.48171,R,ugm-3,73.84090,R,ugm-3
01-01-2017,04:00,0.41753,R,ugm-3,1.08869,R,ugm-3,1.72890,R,ugm-3,72.44391,R,ugm-3
01-01-2017,05:00,0.64142,R,ugm-3,0.59670,R,ugm-3,1.58020,R,ugm-3,79.02972,R,ugm-3
01-01-2017,06:00,0.60931,R,ugm-3,0.30074,R,ugm-3,1.23500,R,ugm-3,81.97338,R,ugm-3
01-01-2017,07:00,0.64174,R,ugm-3,0.44848,R,ugm-3,1.43246,R,ugm-3,83.96908,R,ugm-3
01-01-2017,08:00,0.70566,R,ugm-3,0.44944,R,ugm-3,1.53143,R,ugm-3,84.46800,R,ugm-3
01-01-2017,09:00,0.44934,R,ugm-3,0.24910,R,ugm-3,0.93808,R,ugm-3,84.51790,R,ugm-3
01-01-2017,10:00,0.64142,R,ugm-3,0.39923,R,ugm-3,1.38274,R,ugm-3,82.52220,R,ugm-3
01-01-2017,11:00,0.60962,R,ugm-3,0.25054,R,ugm-3,1.18527,R,ugm-3,79.47875,R,ugm-3
01-01-2017,12:00,0.67385,R,ugm-3,0.34951,R,ugm-3,1.38274,R,ugm-3,77.63273,R,ugm-3
01-01-2017,13:00,0.41722,R,ugm-3,0.39732,R,ugm-3,1.03705,R,ugm-3,75.83660,R,ugm-3
01-01-2017,14:00,0.60962,R,ugm-3,0.39876,R,ugm-3,1.33349,R,ugm-3,75.13811,R,ugm-3
01-01-2017,15:00,0.32118,R,ugm-3,0.44561,R,ugm-3,0.93808,R,ugm-3,75.93639,R,ugm-3
01-01-2017,16:00,0.64142,R,ugm-3,0.34999,R,ugm-3,1.33349,R,ugm-3,77.08391,R,ugm-3
01-01-2017,17:00,0.67323,R,ugm-3,0.59718,R,ugm-3,1.62945,R,ugm-3,74.78886,R,ugm-3
01-01-2017,18:00,0.57750,R,ugm-3,0.25006,R,ugm-3,1.13555,R,ugm-3,75.13811,R,ugm-3
01-01-2017,19:00,0.60962,R,ugm-3,0.29978,R,ugm-3,1.23452,R,ugm-3,75.33768,R,ugm-3
01-01-2017,20:00,0.54538,R,ugm-3,0.29978,R,ugm-3,1.13603,R,ugm-3,77.38327,R,ugm-3
01-01-2017,21:00,0.41753,R,ugm-3,0.54506,R,ugm-3,1.18527,R,ugm-3,76.28563,R,ugm-3
01-01-2017,22:00,0.41722,R,ugm-3,0.54554,R,ugm-3,1.18527,R,ugm-3,73.34198,R,ugm-3
01-01-2017,23:00,0.48115,R,ugm-3,0.39828,R,ugm-3,1.13603,R,ugm-3,73.29208,R,ugm-3
01-01-2017,24:00,0.44965,R,ugm-3,0.54554,R,ugm-3,1.23500,R,ugm-3,69.79961,R,ugm-3
02-01-2017,01:00,0.72676,R,ugm-3,0.13642,R,ugm-3,1.25078,R,ugm-3,68.25294,R,ugm-3
02-01-2017,02:00,0.51358,R,ugm-3,0.39780,R,ugm-3,1.18527,R,ugm-3,66.78943,R,ugm-3
02-01-2017,03:00,0.60962,R,ugm-3,0.15157,R,ugm-3,1.08630,R,ugm-3,68.05337,R,ugm-3
02-01-2017,04:00,0.60962,R,ugm-3,0.00287,R,ugm-3,0.93760,R,ugm-3,66.85595,R,ugm-3
02-01-2017,05:00,0.64142,R,ugm-3,0.20177,R,ugm-3,1.18527,R,ugm-3,66.90584,R,ugm-3
02-01-2017,06:00,0.64142,R,ugm-3,2.47382,R,ugm-3,3.45732,R,ugm-3,62.81466,R,ugm-3
02-01-2017,07:00,0.64174,R,ugm-3,4.25149,R,ugm-3,5.23547,R,ugm-3,58.87315,R,ugm-3
02-01-2017,08:00,0.51326,R,ugm-3,3.21396,R,ugm-3,4.00095,R,ugm-3,56.42842,R,ugm-3
02-01-2017,09:00,0.93017,R,ugm-3,4.25340,R,ugm-3,5.67965,R,ugm-3,55.97939,R,ugm-3
02-01-2017,10:00,1.18712,R,ugm-3,5.19339,R,ugm-3,7.01362,R,ugm-3,55.82971,R,ugm-3
02-01-2017,11:00,1.02653,R,ugm-3,4.35285,R,ugm-3,5.92684,R,ugm-3,56.77767,R,ugm-3
02-01-2017,12:00,1.12288,R,ugm-3,3.90819,R,ugm-3,5.62992,R,ugm-3,59.07272,R,ugm-3
02-01-2017,13:00,1.15500,R,ugm-3,4.64977,R,ugm-3,6.42074,R,ugm-3,59.37208,R,ugm-3
02-01-2017,14:00,0.93017,R,ugm-3,4.20415,R,ugm-3,5.63040,R,ugm-3,60.32003,R,ugm-3
02-01-2017,15:00,0.67354,R,ugm-3,3.21491,R,ugm-3,4.24766,R,ugm-3,60.76907,R,ugm-3
02-01-2017,16:00,0.86594,R,ugm-3,2.42553,R,ugm-3,3.75328,R,ugm-3,60.46971,R,ugm-3
02-01-2017,17:00,0.99441,R,ugm-3,2.32751,R,ugm-3,3.85225,R,ugm-3,58.47401,R,ugm-3
02-01-2017,18:00,0.96229,R,ugm-3,3.36457,R,ugm-3,4.84006,R,ugm-3,59.57165,R,ugm-3
02-01-2017,19:00,0.80170,R,ugm-3,3.80874,R,ugm-3,5.03800,R,ugm-3,57.72562,R,ugm-3
02-01-2017,20:00,0.76990,R,ugm-3,2.12861,R,ugm-3,3.30910,R,ugm-3,59.87100,R,ugm-3
02-01-2017,21:00,0.76990,R,ugm-3,1.78341,R,ugm-3,2.96390,R,ugm-3,62.21595,R,ugm-3
02-01-2017,22:00,0.51326,R,ugm-3,1.68300,R,ugm-3,2.46999,R,ugm-3,62.21595,R,ugm-3
02-01-2017,23:00,0.70535,R,ugm-3,1.04231,R,ugm-3,2.12383,R,ugm-3,63.56305,R,ugm-3
02-01-2017,24:00,0.54538,R,ugm-3,0.74348,R,ugm-3,1.57973,R,ugm-3,65.60864,R,ugm-3
03-01-2017,01:00,0.72801,R,ugm-3,0.46410,R,ugm-3,1.58036,R,ugm-3,67.58771,R,ugm-3
03-01-2017,02:00,0.44965,R,ugm-3,0.59431,R,ugm-3,1.28377,R,ugm-3,66.85595,R,ugm-3
03-01-2017,03:00,0.48177,R,ugm-3,0.59479,R,ugm-3,1.33349,R,ugm-3,63.96219,R,ugm-3
03-01-2017,04:00,0.61024,R,ugm-3,0.29883,R,ugm-3,1.23452,R,ugm-3,66.15746,R,ugm-3
03-01-2017,05:00,0.54601,R,ugm-3,0.24910,R,ugm-3,1.08630,R,ugm-3,68.00348,R,ugm-3
03-01-2017,06:00,0.61024,R,ugm-3,0.10136,R,ugm-3,1.03705,R,ugm-3,69.89939,R,ugm-3
03-01-2017,07:00,0.48177,R,ugm-3,0.44609,R,ugm-3,1.18479,R,ugm-3,71.09681,R,ugm-3
03-01-2017,08:00,0.51389,R,ugm-3,0.49582,R,ugm-3,1.28377,R,ugm-3,70.34843,R,ugm-3
03-01-2017,09:00,0.51389,R,ugm-3,0.69376,R,ugm-3,1.48171,R,ugm-3,69.55015,R,ugm-3
03-01-2017,10:00,0.41753,R,ugm-3,1.18766,R,ugm-3,1.82787,R,ugm-3,67.90369,R,ugm-3
03-01-2017,11:00,0.61024,R,ugm-3,0.89170,R,ugm-3,1.82739,R,ugm-3,67.90369,R,ugm-3
03-01-2017,12:00,0.57812,R,ugm-3,0.99020,R,ugm-3,1.87664,R,ugm-3,68.85165,R,ugm-3
03-01-2017,13:00,0.51389,R,ugm-3,1.33588,R,ugm-3,2.12383,R,ugm-3,67.75402,R,ugm-3
03-01-2017,14:00,0.25694,R,ugm-3,1.23595,R,ugm-3,1.62993,R,ugm-3,66.10756,R,ugm-3
03-01-2017,15:00,0.41753,R,ugm-3,1.63184,R,ugm-3,2.27205,R,ugm-3,64.06197,R,ugm-3
03-01-2017,16:00,0.73871,R,ugm-3,1.97896,R,ugm-3,3.11164,R,ugm-3,61.81681,R,ugm-3
03-01-2017,17:00,0.77083,R,ugm-3,1.53526,R,ugm-3,2.71718,R,ugm-3,64.46111,R,ugm-3
03-01-2017,18:00,0.80295,R,ugm-3,1.13937,R,ugm-3,2.37054,R,ugm-3,70.34843,R,ugm-3
03-01-2017,19:00,0.67448,R,ugm-3,0.94143,R,ugm-3,1.97561,R,ugm-3,70.54800,R,ugm-3
03-01-2017,20:00,0.48177,R,ugm-3,1.03944,R,ugm-3,1.77815,R,ugm-3,69.84950,R,ugm-3
03-01-2017,21:00,0.38542,R,ugm-3,0.98876,R,ugm-3,1.57973,R,ugm-3,67.85380,R,ugm-3
03-01-2017,22:00,0.61024,R,ugm-3,0.64499,R,ugm-3,1.58068,R,ugm-3,67.20520,R,ugm-3
03-01-2017,23:00,0.54601,R,ugm-3,0.69376,R,ugm-3,1.53096,R,ugm-3,67.20520,R,ugm-3
03-01-2017,24:00,0.48177,R,ugm-3,0.74301,R,ugm-3,1.48171,R,ugm-3,66.55660,R,ugm-3
04-01-2017,01:00,0.42824,R,ugm-3,0.52849,R,ugm-3,1.18511,R,ugm-3,64.79373,R,ugm-3
04-01-2017,02:00,0.41753,R,ugm-3,0.93999,R,ugm-3,1.58020,R,ugm-3,63.52978,R,ugm-3
04-01-2017,03:00,0.48177,R,ugm-3,1.63232,R,ugm-3,2.37102,R,ugm-3,65.05982,R,ugm-3
04-01-2017,04:00,0.32118,R,ugm-3,1.58212,R,ugm-3,2.07458,R,ugm-3,69.89939,R,ugm-3
04-01-2017,05:00,0.38542,R,ugm-3,0.34664,R,ugm-3,0.93760,R,ugm-3,74.28993,R,ugm-3
04-01-2017,06:00,0.48177,R,ugm-3,0.24910,R,ugm-3,0.98781,R,ugm-3,74.38972,R,ugm-3
04-01-2017,07:00,0.77083,R,ugm-3,0.25054,R,ugm-3,1.43246,R,ugm-3,76.98413,R,ugm-3
04-01-2017,08:00,0.70660,R,ugm-3,0.49725,R,ugm-3,1.58068,R,ugm-3,80.17725,R,ugm-3
04-01-2017,09:00,0.64236,R,ugm-3,0.54602,R,ugm-3,1.53096,R,ugm-3,78.23144,R,ugm-3
04-01-2017,10:00,0.57812,R,ugm-3,1.23739,R,ugm-3,2.12383,R,ugm-3,76.33553,R,ugm-3
04-01-2017,11:00,0.80295,R,ugm-3,2.62108,R,ugm-3,3.85225,R,ugm-3,73.14241,R,ugm-3
04-01-2017,12:00,1.83073,R,ugm-3,3.02127,R,ugm-3,5.82834,R,ugm-3,71.34628,R,ugm-3
04-01-2017,13:00,0.35330,R,ugm-3,1.77958,R,ugm-3,2.32130,R,ugm-3,71.74542,R,ugm-3
04-01-2017,14:00,0.22483,R,ugm-3,0.54363,R,ugm-3,0.88836,R,ugm-3,75.48735,R,ugm-3
04-01-2017,15:00,0.25694,R,ugm-3,0.59383,R,ugm-3,0.98781,R,ugm-3,76.63488,R,ugm-3
04-01-2017,16:00,0.70660,R,ugm-3,0.64499,R,ugm-3,1.72842,R,ugm-3,75.78671,R,ugm-3
04-01-2017,17:00,0.61024,R,ugm-3,0.39732,R,ugm-3,1.33301,R,ugm-3,78.97983,R,ugm-3
04-01-2017,18:00,0.57812,R,ugm-3,0.29835,R,ugm-3,1.18479,R,ugm-3,80.92564,R,ugm-3
04-01-2017,19:00,0.64236,R,ugm-3,0.24958,R,ugm-3,1.23452,R,ugm-3,80.32693,R,ugm-3
04-01-2017,20:00,0.64236,R,ugm-3,0.24958,R,ugm-3,1.23452,R,ugm-3,80.12736,R,ugm-3
04-01-2017,21:00,0.67448,R,ugm-3,0.34855,R,ugm-3,1.38274,R,ugm-3,77.83230,R,ugm-3
04-01-2017,22:00,0.57812,R,ugm-3,1.28663,R,ugm-3,2.17308,R,ugm-3,72.89294,R,ugm-3
04-01-2017,23:00,0.54601,R,ugm-3,2.62013,R,ugm-3,3.45732,R,ugm-3,73.94069,R,ugm-3
04-01-2017,24:00,0.80295,R,ugm-3,7.56011,R,ugm-3,8.79128,R,ugm-3,61.61724,R,ugm-3
05-01-2017,01:00,0.68602,R,ugm-3,5.67120,R,ugm-3,6.72307,R,ugm-3,64.99330,R,ugm-3
05-01-2017,02:00,0.86843,R,ugm-3,7.91345,R,ugm-3,9.24503,R,ugm-3,61.93322,R,ugm-3
05-01-2017,03:00,0.77208,R,ugm-3,7.02270,R,ugm-3,8.20654,R,ugm-3,61.86670,R,ugm-3
05-01-2017,04:00,0.80420,R,ugm-3,4.50155,R,ugm-3,5.73463,R,ugm-3,59.67143,R,ugm-3
05-01-2017,05:00,0.83632,R,ugm-3,5.54003,R,ugm-3,6.82237,R,ugm-3,63.41337,R,ugm-3
05-01-2017,06:00,0.64298,R,ugm-3,6.38010,R,ugm-3,7.36599,R,ugm-3,56.47831,R,ugm-3
05-01-2017,07:00,0.77208,R,ugm-3,3.26559,R,ugm-3,4.44943,R,ugm-3,61.36778,R,ugm-3
05-01-2017,08:00,0.64330,R,ugm-3,2.27635,R,ugm-3,3.26273,R,ugm-3,63.26369,R,ugm-3
05-01-2017,09:00,0.80420,R,ugm-3,1.58451,R,ugm-3,2.81759,R,ugm-3,62.51530,R,ugm-3
05-01-2017,10:00,0.73965,R,ugm-3,1.68396,R,ugm-3,2.81807,R,ugm-3,64.06197,R,ugm-3
05-01-2017,11:00,0.41785,R,ugm-3,1.78197,R,ugm-3,2.42266,R,ugm-3,64.91014,R,ugm-3
05-01-2017,12:00,0.09635,R,ugm-3,1.73033,R,ugm-3,1.87808,R,ugm-3,65.90799,R,ugm-3
05-01-2017,13:00,0.03212,R,ugm-3,1.28568,R,ugm-3,1.33493,R,ugm-3,67.30498,R,ugm-3
05-01-2017,14:00,0.12847,R,ugm-3,2.52211,R,ugm-3,2.71910,R,ugm-3,67.40477,R,ugm-3
05-01-2017,15:00,0.44996,R,ugm-3,2.12813,R,ugm-3,2.81807,R,ugm-3,66.30713,R,ugm-3
05-01-2017,16:00,0.83600,R,ugm-3,3.46449,R,ugm-3,4.74635,R,ugm-3,61.51745,R,ugm-3
05-01-2017,17:00,1.22173,R,ugm-3,6.38345,R,ugm-3,8.25674,R,ugm-3,57.12691,R,ugm-3
05-01-2017,18:00,1.15749,R,ugm-3,18.24764,R,ugm-3,20.02244,R,ugm-3,37.66884,R,ugm-3
05-01-2017,19:00,1.06114,R,ugm-3,17.85175,R,ugm-3,19.47881,R,ugm-3,35.17421,R,ugm-3
05-01-2017,20:00,0.99691,R,ugm-3,21.80633,R,ugm-3,23.33489,R,ugm-3,30.38453,R,ugm-3
05-01-2017,21:00,1.12538,R,ugm-3,37.62700,R,ugm-3,39.35256,R,ugm-3,21.75313,R,ugm-3
05-01-2017,22:00,1.35020,R,ugm-3,41.38602,R,ugm-3,43.45630,R,ugm-3,11.52517,R,ugm-3
05-01-2017,23:00,3.15068,R,ugm-3,49.69918,R,ugm-3,54.53016,R,ugm-3,9.57936,R,ugm-3
05-01-2017,24:00,10.03048,R,ugm-3,58.67837,R,ugm-3,74.05822,R,ugm-3,1.49678,R,ugm-3
06-01-2017,01:00,12.38777,R,ugm-3,61.68896,R,ugm-3,80.68327,R,ugm-3,1.26394,R,ugm-3
06-01-2017,02:00,7.74792,R,ugm-3,57.92676,R,ugm-3,69.80673,R,ugm-3,1.33047,R,ugm-3
06-01-2017,03:00,2.05742,R,ugm-3,53.60020,R,ugm-3,56.75487,R,ugm-3,3.79183,R,ugm-3
06-01-2017,04:00,1.47867,R,ugm-3,48.55551,R,ugm-3,50.82278,R,ugm-3,5.78753,R,ugm-3
06-01-2017,05:00,1.38232,R,ugm-3,42.42403,R,ugm-3,44.54356,R,ugm-3,11.37549,R,ugm-3
06-01-2017,06:00,1.09326,R,ugm-3,37.92344,R,ugm-3,39.59975,R,ugm-3,15.11743,R,ugm-3
06-01-2017,07:00,1.09326,R,ugm-3,38.31933,R,ugm-3,39.99563,R,ugm-3,16.06539,R,ugm-3
06-01-2017,08:00,1.18961,R,ugm-3,40.29733,R,ugm-3,42.12138,R,ugm-3,12.77248,R,ugm-3
06-01-2017,09:00,2.53950,R,ugm-3,39.16609,R,ugm-3,43.05994,R,ugm-3,10.72689,R,ugm-3
06-01-2017,10:00,4.50057,R,ugm-3,36.75347,R,ugm-3,43.65425,R,ugm-3,12.12388,R,ugm-3
06-01-2017,11:00,5.69049,R,ugm-3,33.84121,R,ugm-3,42.56651,R,ugm-3,13.52087,R,ugm-3
06-01-2017,12:00,5.24022,R,ugm-3,31.36787,R,ugm-3,39.40276,R,ugm-3,16.61420,R,ugm-3
06-01-2017,13:00,4.72602,R,ugm-3,30.87062,R,ugm-3,38.11708,R,ugm-3,15.21721,R,ugm-3
06-01-2017,14:00,3.50460,R,ugm-3,32.99063,R,ugm-3,38.36427,R,ugm-3,16.86367,R,ugm-3
06-01-2017,15:00,3.37582,R,ugm-3,39.46635,R,ugm-3,44.64253,R,ugm-3,13.77033,R,ugm-3
06-01-2017,16:00,1.80017,R,ugm-3,40.34993,R,ugm-3,43.11014,R,ugm-3,10.72689,R,ugm-3
06-01-2017,17:00,1.12538,R,ugm-3,35.69920,R,ugm-3,37.42476,R,ugm-3,15.81592,R,ugm-3
06-01-2017,18:00,1.09326,R,ugm-3,37.77570,R,ugm-3,39.45201,R,ugm-3,15.81592,R,ugm-3
06-01-2017,19:00,1.15749,R,ugm-3,40.14911,R,ugm-3,41.92391,R,ugm-3,12.17377,R,ugm-3
06-01-2017,20:00,1.12538,R,ugm-3,43.80677,R,ugm-3,45.53232,R,ugm-3,8.23226,R,ugm-3
06-01-2017,21:00,1.12538,R,ugm-3,41.63226,R,ugm-3,43.35781,R,ugm-3,5.58796,R,ugm-3
06-01-2017,22:00,0.93267,R,ugm-3,29.07335,R,ugm-3,30.50342,R,ugm-3,13.42108,R,ugm-3
06-01-2017,23:00,0.54663,R,ugm-3,17.35546,R,ugm-3,18.19361,R,ugm-3,21.95270,R,ugm-3
06-01-2017,24:00,0.61087,R,ugm-3,18.14628,R,ugm-3,19.08293,R,ugm-3,24.54711,R,ugm-3
07-01-2017,01:00,0.51514,R,ugm-3,8.57055,R,ugm-3,9.36041,R,ugm-3,29.73593,R,ugm-3
07-01-2017,02:00,0.32149,R,ugm-3,3.70929,R,ugm-3,4.20224,R,ugm-3,41.57708,R,ugm-3
07-01-2017,03:00,0.45090,R,ugm-3,3.60984,R,ugm-3,4.30121,R,ugm-3,42.20906,R,ugm-3
07-01-2017,04:00,0.38635,R,ugm-3,3.16519,R,ugm-3,3.75758,R,ugm-3,46.79917,R,ugm-3
07-01-2017,05:00,0.32180,R,ugm-3,5.24168,R,ugm-3,5.73511,R,ugm-3,46.89895,R,ugm-3
07-01-2017,06:00,0.45059,R,ugm-3,4.69758,R,ugm-3,5.38847,R,ugm-3,45.60175,R,ugm-3
07-01-2017,07:00,0.64361,R,ugm-3,3.75902,R,ugm-3,4.74587,R,ugm-3,48.19616,R,ugm-3
07-01-2017,08:00,0.54725,R,ugm-3,2.96772,R,ugm-3,3.80683,R,ugm-3,47.04863,R,ugm-3
07-01-2017,09:00,0.51514,R,ugm-3,5.24168,R,ugm-3,6.03155,R,ugm-3,43.75572,R,ugm-3
07-01-2017,10:00,0.51482,R,ugm-3,6.92325,R,ugm-3,7.71263,R,ugm-3,38.11787,R,ugm-3
07-01-2017,11:00,0.93329,R,ugm-3,6.42935,R,ugm-3,7.86038,R,ugm-3,39.16561,R,ugm-3
07-01-2017,12:00,0.90117,R,ugm-3,6.77551,R,ugm-3,8.15729,R,ugm-3,39.31529,R,ugm-3
07-01-2017,13:00,0.61180,R,ugm-3,3.46210,R,ugm-3,4.40018,R,ugm-3,48.09637,R,ugm-3
07-01-2017,14:00,0.57937,R,ugm-3,3.31388,R,ugm-3,4.20224,R,ugm-3,52.38713,R,ugm-3
07-01-2017,15:00,0.48302,R,ugm-3,5.04374,R,ugm-3,5.78436,R,ugm-3,52.83616,R,ugm-3
07-01-2017,16:00,0.61149,R,ugm-3,4.30265,R,ugm-3,5.24025,R,ugm-3,52.18756,R,ugm-3
07-01-2017,17:00,0.70784,R,ugm-3,7.12167,R,ugm-3,8.20702,R,ugm-3,40.36303,R,ugm-3
07-01-2017,18:00,0.73996,R,ugm-3,9.04947,R,ugm-3,10.18406,R,ugm-3,35.67314,R,ugm-3
07-01-2017,19:00,0.77208,R,ugm-3,9.64283,R,ugm-3,10.82666,R,ugm-3,31.98109,R,ugm-3
07-01-2017,20:00,0.54694,R,ugm-3,5.68730,R,ugm-3,6.52593,R,ugm-3,38.91615,R,ugm-3
07-01-2017,21:00,0.48302,R,ugm-3,3.41190,R,ugm-3,4.15252,R,ugm-3,50.84046,R,ugm-3
07-01-2017,22:00,0.73996,R,ugm-3,3.06765,R,ugm-3,4.20224,R,ugm-3,45.75142,R,ugm-3
07-01-2017,23:00,0.51514,R,ugm-3,3.06669,R,ugm-3,3.85656,R,ugm-3,40.31314,R,ugm-3
07-01-2017,24:00,0.57937,R,ugm-3,2.62156,R,ugm-3,3.50992,R,ugm-3,44.85336,R,ugm-3
08-01-2017,01:00,0.60078,R,ugm-3,1.45414,R,ugm-3,2.37533,R,ugm-3,51.42254,R,ugm-3
08-01-2017,02:00,0.77208,R,ugm-3,1.33971,R,ugm-3,2.52354,R,ugm-3,54.03358,R,ugm-3
08-01-2017,03:00,0.51514,R,ugm-3,1.58546,R,ugm-3,2.37533,R,ugm-3,47.94669,R,ugm-3
08-01-2017,04:00,0.51482,R,ugm-3,1.53669,R,ugm-3,2.32608,R,ugm-3,45.10282,R,ugm-3
08-01-2017,05:00,0.51514,R,ugm-3,1.48649,R,ugm-3,2.27635,R,ugm-3,41.21121,R,ugm-3
08-01-2017,06:00,0.64361,R,ugm-3,1.04183,R,ugm-3,2.02868,R,ugm-3,52.48691,R,ugm-3
08-01-2017,07:00,0.57937,R,ugm-3,1.88286,R,ugm-3,2.77121,R,ugm-3,48.64519,R,ugm-3
08-01-2017,08:00,0.61149,R,ugm-3,1.09156,R,ugm-3,2.02916,R,ugm-3,47.69723,R,ugm-3
08-01-2017,09:00,0.80451,R,ugm-3,1.04231,R,ugm-3,2.27588,R,ugm-3,48.24605,R,ugm-3
08-01-2017,10:00,0.48302,R,ugm-3,1.04136,R,ugm-3,1.78197,R,ugm-3,44.45422,R,ugm-3
08-01-2017,11:00,0.25726,R,ugm-3,0.84246,R,ugm-3,1.23691,R,ugm-3,58.62369,R,ugm-3
08-01-2017,12:00,0.19271,R,ugm-3,1.23834,R,ugm-3,1.53383,R,ugm-3,57.92519,R,ugm-3
08-01-2017,13:00,0.35392,R,ugm-3,2.08032,R,ugm-3,2.62299,R,ugm-3,54.68218,R,ugm-3
08-01-2017,14:00,0.67573,R,ugm-3,3.02175,R,ugm-3,4.05785,R,ugm-3,48.69508,R,ugm-3
08-01-2017,15:00,0.61149,R,ugm-3,4.35715,R,ugm-3,5.29476,R,ugm-3,47.64734,R,ugm-3
08-01-2017,16:00,0.57937,R,ugm-3,8.31603,R,ugm-3,9.20438,R,ugm-3,40.21336,R,ugm-3
08-01-2017,17:00,0.73996,R,ugm-3,11.28662,R,ugm-3,12.42121,R,ugm-3,33.22841,R,ugm-3
08-01-2017,18:00,0.80451,R,ugm-3,11.63326,R,ugm-3,12.86682,R,ugm-3,35.32389,R,ugm-3
08-01-2017,19:00,0.51514,R,ugm-3,13.41284,R,ugm-3,14.20270,R,ugm-3,31.43228,R,ugm-3
08-01-2017,20:00,0.74027,R,ugm-3,9.20773,R,ugm-3,10.34280,R,ugm-3,41.76002,R,ugm-3
08-01-2017,21:00,0.54725,R,ugm-3,8.26630,R,ugm-3,9.10541,R,ugm-3,40.36303,R,ugm-3
08-01-2017,22:00,0.48302,R,ugm-3,11.38416,R,ugm-3,12.12477,R,ugm-3,37.96819,R,ugm-3
08-01-2017,23:00,0.90086,R,ugm-3,19.15512,R,ugm-3,20.53643,R,ugm-3,26.24346,R,ugm-3
08-01-2017,24:00,0.48302,R,ugm-3,10.74012,R,ugm-3,11.48074,R,ugm-3,32.72948,R,ugm-3
09-01-2017,01:00,0.73009,R,ugm-3,12.93487,R,ugm-3,14.05433,R,ugm-3,36.38826,R,ugm-3
09-01-2017,02:00,0.61211,R,ugm-3,14.40208,R,ugm-3,15.34064,R,ugm-3,32.33034,R,ugm-3
09-01-2017,03:00,0.57937,R,ugm-3,12.17593,R,ugm-3,13.06429,R,ugm-3,33.57765,R,ugm-3
09-01-2017,04:00,0.67604,R,ugm-3,12.07696,R,ugm-3,13.11353,R,ugm-3,29.33679,R,ugm-3
09-01-2017,05:00,0.57937,R,ugm-3,8.56322,R,ugm-3,9.45158,R,ugm-3,31.03314,R,ugm-3
09-01-2017,06:00,0.51514,R,ugm-3,6.58330,R,ugm-3,7.37317,R,ugm-3,35.57335,R,ugm-3
09-01-2017,07:00,0.51514,R,ugm-3,5.44537,R,ugm-3,6.23523,R,ugm-3,41.95959,R,ugm-3
09-01-2017,08:00,0.61211,R,ugm-3,6.63255,R,ugm-3,7.57111,R,ugm-3,42.25895,R,ugm-3
09-01-2017,09:00,0.61180,R,ugm-3,9.55246,R,ugm-3,10.49054,R,ugm-3,43.90540,R,ugm-3
09-01-2017,10:00,0.45090,R,ugm-3,9.80013,R,ugm-3,10.49150,R,ugm-3,50.94024,R,ugm-3
09-01-2017,11:00,0.74058,R,ugm-3,10.79080,R,ugm-3,11.92635,R,ugm-3,53.78412,R,ugm-3
09-01-2017,12:00,0.70847,R,ugm-3,8.66219,R,ugm-3,9.74849,R,ugm-3,56.72777,R,ugm-3
09-01-2017,13:00,0.57937,R,ugm-3,4.55558,R,ugm-3,5.44393,R,ugm-3,60.32003,R,ugm-3
09-01-2017,14:00,0.70816,R,ugm-3,0.84437,R,ugm-3,1.93019,R,ugm-3,70.09896,R,ugm-3
09-01-2017,15:00,0.58000,R,ugm-3,1.53526,R,ugm-3,2.42457,R,ugm-3,68.05337,R,ugm-3
09-01-2017,16:00,0.74058,R,ugm-3,1.43677,R,ugm-3,2.57231,R,ugm-3,65.20950,R,ugm-3
09-01-2017,17:00,0.74090,R,ugm-3,1.68491,R,ugm-3,2.82094,R,ugm-3,66.55660,R,ugm-3
09-01-2017,18:00,0.83756,R,ugm-3,3.76332,R,ugm-3,5.04757,R,ugm-3,61.16821,R,ugm-3
09-01-2017,19:00,0.86937,R,ugm-3,3.71503,R,ugm-3,5.04804,R,ugm-3,57.02713,R,ugm-3
09-01-2017,20:00,0.74058,R,ugm-3,2.42696,R,ugm-3,3.56251,R,ugm-3,59.52175,R,ugm-3
09-01-2017,21:00,0.48302,R,ugm-3,2.47621,R,ugm-3,3.21683,R,ugm-3,57.42627,R,ugm-3
09-01-2017,22:00,0.41878,R,ugm-3,2.47621,R,ugm-3,3.11833,R,ugm-3,55.33078,R,ugm-3
09-01-2017,23:00,0.45090,R,ugm-3,1.58498,R,ugm-3,2.27635,R,ugm-3,58.92304,R,ugm-3
09-01-2017,24:00,0.38635,R,ugm-3,1.33732,R,ugm-3,1.92971,R,ugm-3,60.32003,R,ugm-3
10-01-2017,01:00,0.51555,R,ugm-3,0.99131,R,ugm-3,1.78181,R,ugm-3,62.06627,R,ugm-3
10-01-2017,02:00,0.57937,R,ugm-3,0.89362,R,ugm-3,1.78197,R,ugm-3,62.13279,R,ugm-3
10-01-2017,03:00,0.51514,R,ugm-3,0.59479,R,ugm-3,1.38465,R,ugm-3,61.36778,R,ugm-3
10-01-2017,04:00,0.67635,R,ugm-3,0.39780,R,ugm-3,1.43485,R,ugm-3,62.26584,R,ugm-3
10-01-2017,05:00,0.67604,R,ugm-3,0.39780,R,ugm-3,1.43438,R,ugm-3,69.45036,R,ugm-3
10-01-2017,06:00,0.48302,R,ugm-3,0.49677,R,ugm-3,1.23739,R,ugm-3,70.59789,R,ugm-3
10-01-2017,07:00,0.48302,R,ugm-3,0.79369,R,ugm-3,1.53430,R,ugm-3,71.34628,R,ugm-3
10-01-2017,08:00,0.61211,R,ugm-3,0.99068,R,ugm-3,1.92923,R,ugm-3,70.24864,R,ugm-3
10-01-2017,09:00,0.48302,R,ugm-3,0.94191,R,ugm-3,1.68252,R,ugm-3,67.10541,R,ugm-3
10-01-2017,10:00,0.45090,R,ugm-3,1.88238,R,ugm-3,2.57375,R,ugm-3,63.06412,R,ugm-3
10-01-2017,11:00,0.32212,R,ugm-3,3.21730,R,ugm-3,3.71121,R,ugm-3,59.57165,R,ugm-3
10-01-2017,12:00,0.48333,R,ugm-3,1.68300,R,ugm-3,2.42409,R,ugm-3,60.81896,R,ugm-3
10-01-2017,13:00,0.61149,R,ugm-3,1.23882,R,ugm-3,2.17643,R,ugm-3,67.85380,R,ugm-3
10-01-2017,14:00,0.41847,R,ugm-3,1.09060,R,ugm-3,1.73225,R,ugm-3,67.70412,R,ugm-3
10-01-2017,15:00,0.54725,R,ugm-3,2.03108,R,ugm-3,2.87018,R,ugm-3,63.66283,R,ugm-3
10-01-2017,16:00,0.67635,R,ugm-3,2.22854,R,ugm-3,3.26559,R,ugm-3,61.26799,R,ugm-3
10-01-2017,17:00,0.57937,R,ugm-3,3.71408,R,ugm-3,4.60243,R,ugm-3,61.31788,R,ugm-3
10-01-2017,18:00,0.57937,R,ugm-3,4.15921,R,ugm-3,5.04757,R,ugm-3,58.57380,R,ugm-3
10-01-2017,19:00,0.32243,R,ugm-3,4.20702,R,ugm-3,4.70140,R,ugm-3,54.63229,R,ugm-3
10-01-2017,20:00,0.48302,R,ugm-3,3.11881,R,ugm-3,3.85943,R,ugm-3,55.82971,R,ugm-3
10-01-2017,21:00,0.51514,R,ugm-3,3.26798,R,ugm-3,4.05785,R,ugm-3,58.37423,R,ugm-3
10-01-2017,22:00,0.48302,R,ugm-3,2.57518,R,ugm-3,3.31580,R,ugm-3,56.47831,R,ugm-3
10-01-2017,23:00,0.54725,R,ugm-3,1.68491,R,ugm-3,2.52402,R,ugm-3,66.75617,R,ugm-3
10-01-2017,24:00,0.41878,R,ugm-3,1.38656,R,ugm-3,2.02868,R,ugm-3,66.50670,R,ugm-3
11-01-2017,01:00,0.55879,R,ugm-3,1.32281,R,ugm-3,2.17961,R,ugm-3,71.91172,R,ugm-3
11-01-2017,02:00,0.51638,R,ugm-3,1.52044,R,ugm-3,2.31221,R,ugm-3,68.31946,R,ugm-3
11-01-2017,03:00,0.38698,R,ugm-3,1.88333,R,ugm-3,2.47669,R,ugm-3,61.51745,R,ugm-3
11-01-2017,04:00,0.51576,R,ugm-3,0.74444,R,ugm-3,1.53526,R,ugm-3,61.96649,R,ugm-3
11-01-2017,05:00,0.45152,R,ugm-3,0.29787,R,ugm-3,0.99020,R,ugm-3,71.19660,R,ugm-3
11-01-2017,06:00,0.67697,R,ugm-3,0.20081,R,ugm-3,1.23882,R,ugm-3,86.26413,R,ugm-3
11-01-2017,07:00,0.77395,R,ugm-3,0.34903,R,ugm-3,1.53574,R,ugm-3,83.61983,R,ugm-3
11-01-2017,08:00,0.58031,R,ugm-3,0.54650,R,ugm-3,1.43629,R,ugm-3,80.77596,R,ugm-3
11-01-2017,09:00,0.58031,R,ugm-3,1.09156,R,ugm-3,1.98135,R,ugm-3,80.22714,R,ugm-3
11-01-2017,10:00,0.80607,R,ugm-3,0.84437,R,ugm-3,2.08032,R,ugm-3,86.21424,R,ugm-3
11-01-2017,11:00,0.80576,R,ugm-3,0.74635,R,ugm-3,1.98183,R,ugm-3,82.02327,R,ugm-3
11-01-2017,12:00,0.64485,R,ugm-3,0.84389,R,ugm-3,1.83265,R,ugm-3,79.87789,R,ugm-3
11-01-2017,13:00,0.61274,R,ugm-3,0.69472,R,ugm-3,1.63423,R,ugm-3,79.62843,R,ugm-3
11-01-2017,14:00,0.45152,R,ugm-3,0.69472,R,ugm-3,1.38704,R,ugm-3,82.67187,R,ugm-3
11-01-2017,15:00,0.38666,R,ugm-3,0.79417,R,ugm-3,1.38704,R,ugm-3,79.27918,R,ugm-3
11-01-2017,16:00,0.90273,R,ugm-3,0.94382,R,ugm-3,2.32799,R,ugm-3,75.13811,R,ugm-3
11-01-2017,17:00,0.90273,R,ugm-3,1.29046,R,ugm-3,2.67463,R,ugm-3,74.19015,R,ugm-3
11-01-2017,18:00,0.93485,R,ugm-3,0.94430,R,ugm-3,2.37772,R,ugm-3,78.23144,R,ugm-3
11-01-2017,19:00,0.77333,R,ugm-3,0.84533,R,ugm-3,2.03108,R,ugm-3,76.78456,R,ugm-3
11-01-2017,20:00,0.54788,R,ugm-3,0.54698,R,ugm-3,1.38704,R,ugm-3,75.43746,R,ugm-3
11-01-2017,21:00,0.67697,R,ugm-3,0.39876,R,ugm-3,1.43677,R,ugm-3,74.33983,R,ugm-3
11-01-2017,22:00,0.41909,R,ugm-3,0.64547,R,ugm-3,1.28807,R,ugm-3,72.39402,R,ugm-3
11-01-2017,23:00,0.48364,R,ugm-3,0.79369,R,ugm-3,1.53526,R,ugm-3,69.74972,R,ugm-3
11-01-2017,24:00,0.80607,R,ugm-3,0.29978,R,ugm-3,1.53574,R,ugm-3,74.48950,R,ugm-3
12-01-2017,01:00,0.42990,R,ugm-3,0.52976,R,ugm-3,1.18894,R,ugm-3,72.04477,R,ugm-3
12-01-2017,02:00,0.64485,R,ugm-3,0.53040,R,ugm-3,1.51916,R,ugm-3,73.04262,R,ugm-3
12-01-2017,03:00,0.61242,R,ugm-3,0.44800,R,ugm-3,1.38704,R,ugm-3,73.19230,R,ugm-3
12-01-2017,04:00,0.48395,R,ugm-3,0.24863,R,ugm-3,0.99068,R,ugm-3,73.44176,R,ugm-3
12-01-2017,05:00,0.61274,R,ugm-3,0.24958,R,ugm-3,1.18910,R,ugm-3,73.44176,R,ugm-3
12-01-2017,06:00,0.67728,R,ugm-3,0.34855,R,ugm-3,1.38704,R,ugm-3,70.49810,R,ugm-3
12-01-2017,07:00,0.48395,R,ugm-3,0.39684,R,ugm-3,1.13889,R,ugm-3,69.60004,R,ugm-3
12-01-2017,08:00,0.61242,R,ugm-3,0.49725,R,ugm-3,1.43629,R,ugm-3,67.80391,R,ugm-3
12-01-2017,09:00,0.45152,R,ugm-3,1.68539,R,ugm-3,2.37772,R,ugm-3,62.76477,R,ugm-3
12-01-2017,10:00,0.51576,R,ugm-3,3.17188,R,ugm-3,3.96270,R,ugm-3,62.41552,R,ugm-3
12-01-2017,11:00,0.54819,R,ugm-3,4.01434,R,ugm-3,4.85488,R,ugm-3,65.05982,R,ugm-3
12-01-2017,12:00,0.54850,R,ugm-3,3.51757,R,ugm-3,4.35859,R,ugm-3,65.00993,R,ugm-3
12-01-2017,13:00,0.58031,R,ugm-3,2.62682,R,ugm-3,3.51661,R,ugm-3,66.95574,R,ugm-3
12-01-2017,14:00,0.67697,R,ugm-3,3.91489,R,ugm-3,4.95290,R,ugm-3,64.56090,R,ugm-3
12-01-2017,15:00,0.80638,R,ugm-3,7.87807,R,ugm-3,9.11450,R,ugm-3,61.36778,R,ugm-3
12-01-2017,16:00,0.77395,R,ugm-3,4.55940,R,ugm-3,5.74611,R,ugm-3,57.17681,R,ugm-3
12-01-2017,17:00,0.90273,R,ugm-3,2.38011,R,ugm-3,3.76428,R,ugm-3,62.76477,R,ugm-3
12-01-2017,18:00,0.93516,R,ugm-3,2.18216,R,ugm-3,3.61606,R,ugm-3,67.20520,R,ugm-3
12-01-2017,19:00,0.74183,R,ugm-3,2.23141,R,ugm-3,3.36887,R,ugm-3,68.20305,R,ugm-3
12-01-2017,20:00,0.77364,R,ugm-3,2.23141,R,ugm-3,3.41764,R,ugm-3,70.04907,R,ugm-3
12-01-2017,21:00,0.74152,R,ugm-3,1.58690,R,ugm-3,2.72388,R,ugm-3,70.34843,R,ugm-3
12-01-2017,22:00,0.77364,R,ugm-3,1.58738,R,ugm-3,2.77360,R,ugm-3,71.44606,R,ugm-3
12-01-2017,23:00,0.67728,R,ugm-3,2.57805,R,ugm-3,3.61654,R,ugm-3,71.09681,R,ugm-3
12-01-2017,24:00,0.54850,R,ugm-3,3.71647,R,ugm-3,4.55749,R,ugm-3,68.20305,R,ugm-3